owner,sensor,date,latitude,longitude,air_pressure(mBar),qcFlag 
WAVCIS,ioos:station:WAVCIS:CSI03:1,2011-05-01T00:00:00Z,29.4412,-92.0613,1009.29,11111222 
WAVCIS,ioos:station:WAVCIS:CSI03:1,2011-05-01T01:00:00Z,29.4412,-92.0613,1008.13,11111222 
WAVCIS,ioos:station:WAVCIS:CSI03:1,2011-05-01T02:00:00Z,29.4412,-92.0613,1008.35,11111222 
WAVCIS,ioos:station:WAVCIS:CSI03:1,2011-05-01T03:00:00Z,29.4412,-92.0613,1009.38,11111222 
WAVCIS,ioos:station:WAVCIS:CSI03:1,2011-05-01T04:00:00Z,29.4412,-92.0613,1010.41,11111222 
WAVCIS,ioos:station:WAVCIS:CSI03:1,2011-05-01T05:00:00Z,29.4412,-92.0613,1010.9,11111222 
WAVCIS,ioos:station:WAVCIS:CSI03:1,2011-05-01T06:00:00Z,29.4412,-92.0613,1010.21,11111222 
WAVCIS,ioos:station:WAVCIS:CSI03:1,2011-05-01T07:00:00Z,29.4412,-92.0613,1009.57,11111222 
WAVCIS,ioos:station:WAVCIS:CSI03:1,2011-05-01T08:00:00Z,29.4412,-92.0613,1009.06,11111222 
WAVCIS,ioos:station:WAVCIS:CSI03:1,2011-05-01T09:00:00Z,29.4412,-92.0613,1008.42,11111222 
WAVCIS,ioos:station:WAVCIS:CSI03:1,2011-05-01T10:00:00Z,29.4412,-92.0613,1008.95,11111222 
WAVCIS,ioos:station:WAVCIS:CSI03:1,2011-05-01T11:00:00Z,29.4412,-92.0613,1009.04,11111222 
WAVCIS,ioos:station:WAVCIS:CSI03:1,2011-05-01T12:00:00Z,29.4412,-92.0613,1009.85,11111222 
WAVCIS,ioos:station:WAVCIS:CSI03:1,2011-05-01T13:00:00Z,29.4412,-92.0613,1010.2,11111222 
WAVCIS,ioos:station:WAVCIS:CSI03:1,2011-05-01T14:00:00Z,29.4412,-92.0613,1010.39,11111222 
WAVCIS,ioos:station:WAVCIS:CSI03:1,2011-05-01T15:00:00Z,29.4412,-92.0613,1010.78,11111222 
WAVCIS,ioos:station:WAVCIS:CSI03:1,2011-05-01T16:00:00Z,29.4412,-92.0613,1011.52,11111222 
WAVCIS,ioos:station:WAVCIS:CSI03:1,2011-05-01T17:00:00Z,29.4412,-92.0613,1011.46,11111222 
WAVCIS,ioos:station:WAVCIS:CSI03:1,2011-05-01T18:00:00Z,29.4412,-92.0613,1011.29,11111222 
WAVCIS,ioos:station:WAVCIS:CSI03:1,2011-05-01T19:00:00Z,29.4412,-92.0613,1010.78,11111222 
WAVCIS,ioos:station:WAVCIS:CSI03:1,2011-05-01T20:00:00Z,29.4412,-92.0613,1010.45,11111222 
WAVCIS,ioos:station:WAVCIS:CSI03:1,2011-05-01T21:00:00Z,29.4412,-92.0613,1010.08,11111222 
WAVCIS,ioos:station:WAVCIS:CSI03:1,2011-05-01T22:00:00Z,29.4412,-92.0613,1010.0,11111222 
WAVCIS,ioos:station:WAVCIS:CSI03:1,2011-05-01T23:00:00Z,29.4412,-92.0613,1010.01,11111222 
WAVCIS,ioos:station:WAVCIS:CSI03:1,2011-05-02T00:00:00Z,29.4412,-92.0613,1010.04,11111222 
WAVCIS,ioos:station:WAVCIS:CSI03:1,2011-05-02T01:00:00Z,29.4412,-92.0613,1010.32,11111222 
WAVCIS,ioos:station:WAVCIS:CSI03:1,2011-05-02T02:00:00Z,29.4412,-92.0613,1010.28,11111222 
WAVCIS,ioos:station:WAVCIS:CSI03:1,2011-05-02T03:00:00Z,29.4412,-92.0613,1010.42,11111222 
WAVCIS,ioos:station:WAVCIS:CSI03:1,2011-05-02T04:00:00Z,29.4412,-92.0613,1010.98,11111222 
WAVCIS,ioos:station:WAVCIS:CSI03:1,2011-05-02T05:00:00Z,29.4412,-92.0613,1010.63,11111222 
WAVCIS,ioos:station:WAVCIS:CSI03:1,2011-05-02T06:00:00Z,29.4412,-92.0613,1010.51,11111222 
WAVCIS,ioos:station:WAVCIS:CSI03:1,2011-05-02T07:00:00Z,29.4412,-92.0613,1010.2,11111222 
WAVCIS,ioos:station:WAVCIS:CSI03:1,2011-05-02T08:00:00Z,29.4412,-92.0613,1010.55,11111222 
WAVCIS,ioos:station:WAVCIS:CSI03:1,2011-05-02T09:00:00Z,29.4412,-92.0613,1010.73,11111222 
WAVCIS,ioos:station:WAVCIS:CSI03:1,2011-05-02T10:00:00Z,29.4412,-92.0613,1010.98,11111222 
WAVCIS,ioos:station:WAVCIS:CSI03:1,2011-05-02T11:00:00Z,29.4412,-92.0613,1011.15,11111222 
WAVCIS,ioos:station:WAVCIS:CSI03:1,2011-05-02T12:00:00Z,29.4412,-92.0613,1012.32,11111222 
WAVCIS,ioos:station:WAVCIS:CSI03:1,2011-05-02T13:00:00Z,29.4412,-92.0613,1012.89,11111222 
WAVCIS,ioos:station:WAVCIS:CSI03:1,2011-05-02T14:00:00Z,29.4412,-92.0613,1013.73,11111222 
WAVCIS,ioos:station:WAVCIS:CSI03:1,2011-05-02T15:00:00Z,29.4412,-92.0613,1014.4,11111222 
WAVCIS,ioos:station:WAVCIS:CSI03:1,2011-05-02T16:00:00Z,29.4412,-92.0613,1014.91,11111222 
WAVCIS,ioos:station:WAVCIS:CSI03:1,2011-05-02T17:00:00Z,29.4412,-92.0613,1015.11,11111222 
WAVCIS,ioos:station:WAVCIS:CSI03:1,2011-05-02T18:00:00Z,29.4412,-92.0613,1015.03,11111222 
WAVCIS,ioos:station:WAVCIS:CSI03:1,2011-05-02T19:00:00Z,29.4412,-92.0613,1014.53,11111222 
WAVCIS,ioos:station:WAVCIS:CSI03:1,2011-05-02T20:00:00Z,29.4412,-92.0613,1014.29,11111222 
WAVCIS,ioos:station:WAVCIS:CSI03:1,2011-05-02T21:00:00Z,29.4412,-92.0613,1013.72,11111222 
WAVCIS,ioos:station:WAVCIS:CSI03:1,2011-05-02T22:00:00Z,29.4412,-92.0613,1013.7,11111222 
WAVCIS,ioos:station:WAVCIS:CSI03:1,2011-05-02T23:00:00Z,29.4412,-92.0613,1013.32,11111222 
WAVCIS,ioos:station:WAVCIS:CSI03:1,2011-05-03T00:00:00Z,29.4412,-92.0613,1013.1,11111222 
WAVCIS,ioos:station:WAVCIS:CSI03:1,2011-05-03T01:00:00Z,29.4412,-92.0613,1013.74,11111222 
WAVCIS,ioos:station:WAVCIS:CSI03:1,2011-05-03T02:00:00Z,29.4412,-92.0613,1013.76,11111222 
WAVCIS,ioos:station:WAVCIS:CSI03:1,2011-05-03T03:00:00Z,29.4412,-92.0613,1014.26,11111222 
WAVCIS,ioos:station:WAVCIS:CSI03:1,2011-05-03T04:00:00Z,29.4412,-92.0613,1014.13,11111222 
WAVCIS,ioos:station:WAVCIS:CSI03:1,2011-05-03T05:00:00Z,29.4412,-92.0613,1013.68,11111222 
WAVCIS,ioos:station:WAVCIS:CSI03:1,2011-05-03T06:00:00Z,29.4412,-92.0613,1014.46,11111222 
WAVCIS,ioos:station:WAVCIS:CSI03:1,2011-05-03T07:00:00Z,29.4412,-92.0613,1015.09,11111222 
WAVCIS,ioos:station:WAVCIS:CSI03:1,2011-05-03T08:00:00Z,29.4412,-92.0613,1014.89,11111222 
WAVCIS,ioos:station:WAVCIS:CSI03:1,2011-05-03T09:00:00Z,29.4412,-92.0613,1015.54,11111222 
WAVCIS,ioos:station:WAVCIS:CSI03:1,2011-05-03T10:00:00Z,29.4412,-92.0613,1015.61,11111222 
WAVCIS,ioos:station:WAVCIS:CSI03:1,2011-05-03T11:00:00Z,29.4412,-92.0613,1016.41,11111222 
WAVCIS,ioos:station:WAVCIS:CSI03:1,2011-05-03T12:00:00Z,29.4412,-92.0613,1017.45,11111222 
WAVCIS,ioos:station:WAVCIS:CSI03:1,2011-05-03T13:00:00Z,29.4412,-92.0613,1018.69,11111222 
WAVCIS,ioos:station:WAVCIS:CSI03:1,2011-05-03T14:00:00Z,29.4412,-92.0613,1019.3,11111222 
WAVCIS,ioos:station:WAVCIS:CSI03:1,2011-05-03T15:00:00Z,29.4412,-92.0613,1020.19,11111222 
WAVCIS,ioos:station:WAVCIS:CSI03:1,2011-05-03T16:00:00Z,29.4412,-92.0613,1021.08,11111222 
WAVCIS,ioos:station:WAVCIS:CSI03:1,2011-05-03T17:00:00Z,29.4412,-92.0613,1021.44,11111222 
WAVCIS,ioos:station:WAVCIS:CSI03:1,2011-05-03T18:00:00Z,29.4412,-92.0613,1021.07,11111222 
WAVCIS,ioos:station:WAVCIS:CSI03:1,2011-05-03T19:00:00Z,29.4412,-92.0613,1021.01,11111222 
WAVCIS,ioos:station:WAVCIS:CSI03:1,2011-05-03T20:00:00Z,29.4412,-92.0613,1021.17,11111222 
WAVCIS,ioos:station:WAVCIS:CSI03:1,2011-05-03T21:00:00Z,29.4412,-92.0613,1021.41,11111222 
WAVCIS,ioos:station:WAVCIS:CSI03:1,2011-05-03T22:00:00Z,29.4412,-92.0613,1020.97,11111222 
WAVCIS,ioos:station:WAVCIS:CSI03:1,2011-05-03T23:00:00Z,29.4412,-92.0613,1021.16,11111222 
WAVCIS,ioos:station:WAVCIS:CSI03:1,2011-05-04T00:00:00Z,29.4412,-92.0613,1021.32,11111222 
WAVCIS,ioos:station:WAVCIS:CSI03:1,2011-05-04T01:00:00Z,29.4412,-92.0613,1021.79,11111222 
WAVCIS,ioos:station:WAVCIS:CSI03:1,2011-05-04T02:00:00Z,29.4412,-92.0613,1022.41,11111222 
WAVCIS,ioos:station:WAVCIS:CSI03:1,2011-05-04T03:00:00Z,29.4412,-92.0613,1023.2,11111222 
WAVCIS,ioos:station:WAVCIS:CSI03:1,2011-05-04T04:00:00Z,29.4412,-92.0613,1023.57,11111222 
WAVCIS,ioos:station:WAVCIS:CSI03:1,2011-05-04T05:00:00Z,29.4412,-92.0613,1023.85,11111222 
WAVCIS,ioos:station:WAVCIS:CSI03:1,2011-05-04T06:00:00Z,29.4412,-92.0613,1023.81,11111222 
WAVCIS,ioos:station:WAVCIS:CSI03:1,2011-05-04T07:00:00Z,29.4412,-92.0613,1023.88,11111222 
WAVCIS,ioos:station:WAVCIS:CSI03:1,2011-05-04T08:00:00Z,29.4412,-92.0613,1023.63,11111222 
WAVCIS,ioos:station:WAVCIS:CSI03:1,2011-05-04T09:00:00Z,29.4412,-92.0613,1023.77,11111222 
WAVCIS,ioos:station:WAVCIS:CSI03:1,2011-05-04T10:00:00Z,29.4412,-92.0613,1024.11,11111222 
WAVCIS,ioos:station:WAVCIS:CSI03:1,2011-05-04T11:00:00Z,29.4412,-92.0613,1024.45,11111222 
WAVCIS,ioos:station:WAVCIS:CSI03:1,2011-05-04T12:00:00Z,29.4412,-92.0613,1024.78,11111222 
WAVCIS,ioos:station:WAVCIS:CSI03:1,2011-05-04T13:00:00Z,29.4412,-92.0613,1025.18,11111222 
WAVCIS,ioos:station:WAVCIS:CSI03:1,2011-05-04T14:00:00Z,29.4412,-92.0613,1025.58,11111222 
WAVCIS,ioos:station:WAVCIS:CSI03:1,2011-05-04T15:00:00Z,29.4412,-92.0613,1025.81,11111222 
WAVCIS,ioos:station:WAVCIS:CSI03:1,2011-05-04T16:00:00Z,29.4412,-92.0613,1025.87,11111222 
WAVCIS,ioos:station:WAVCIS:CSI03:1,2011-05-04T17:00:00Z,29.4412,-92.0613,1025.58,11111222 
WAVCIS,ioos:station:WAVCIS:CSI03:1,2011-05-04T18:00:00Z,29.4412,-92.0613,1024.89,11111222 
WAVCIS,ioos:station:WAVCIS:CSI03:1,2011-05-04T19:00:00Z,29.4412,-92.0613,1024.26,11111222 
WAVCIS,ioos:station:WAVCIS:CSI03:1,2011-05-04T20:00:00Z,29.4412,-92.0613,1023.41,11111222 
WAVCIS,ioos:station:WAVCIS:CSI03:1,2011-05-04T21:00:00Z,29.4412,-92.0613,1022.68,11111222 
WAVCIS,ioos:station:WAVCIS:CSI03:1,2011-05-04T22:00:00Z,29.4412,-92.0613,1022.21,11111222 
WAVCIS,ioos:station:WAVCIS:CSI03:1,2011-05-04T23:00:00Z,29.4412,-92.0613,1021.9,11111222 
WAVCIS,ioos:station:WAVCIS:CSI03:1,2011-05-05T00:00:00Z,29.4412,-92.0613,1021.84,11111222 
WAVCIS,ioos:station:WAVCIS:CSI03:1,2011-05-05T01:00:00Z,29.4412,-92.0613,1021.98,11111222 
WAVCIS,ioos:station:WAVCIS:CSI03:1,2011-05-05T02:00:00Z,29.4412,-92.0613,1022.16,11111222 
WAVCIS,ioos:station:WAVCIS:CSI03:1,2011-05-05T03:00:00Z,29.4412,-92.0613,1022.54,11111222 
WAVCIS,ioos:station:WAVCIS:CSI03:1,2011-05-05T04:00:00Z,29.4412,-92.0613,1022.65,11111222 
WAVCIS,ioos:station:WAVCIS:CSI03:1,2011-05-05T05:00:00Z,29.4412,-92.0613,1022.5,11111222 
WAVCIS,ioos:station:WAVCIS:CSI03:1,2011-05-05T06:00:00Z,29.4412,-92.0613,1021.75,11111222 
WAVCIS,ioos:station:WAVCIS:CSI03:1,2011-05-05T07:00:00Z,29.4412,-92.0613,1021.36,11111222 
WAVCIS,ioos:station:WAVCIS:CSI03:1,2011-05-05T08:00:00Z,29.4412,-92.0613,1020.8,11111222 
WAVCIS,ioos:station:WAVCIS:CSI03:1,2011-05-05T09:00:00Z,29.4412,-92.0613,1020.64,11111222 
WAVCIS,ioos:station:WAVCIS:CSI03:1,2011-05-05T10:00:00Z,29.4412,-92.0613,1020.51,11111222 
WAVCIS,ioos:station:WAVCIS:CSI03:1,2011-05-05T11:00:00Z,29.4412,-92.0613,1020.51,11111222 
WAVCIS,ioos:station:WAVCIS:CSI03:1,2011-05-05T12:00:00Z,29.4412,-92.0613,1020.94,11111222 
WAVCIS,ioos:station:WAVCIS:CSI03:1,2011-05-05T13:00:00Z,29.4412,-92.0613,1020.94,11111222 
WAVCIS,ioos:station:WAVCIS:CSI03:1,2011-05-05T14:00:00Z,29.4412,-92.0613,1021.1,11111222 
WAVCIS,ioos:station:WAVCIS:CSI03:1,2011-05-05T15:00:00Z,29.4412,-92.0613,1020.97,11111222 
WAVCIS,ioos:station:WAVCIS:CSI03:1,2011-05-05T16:00:00Z,29.4412,-92.0613,1021.16,11111222 
WAVCIS,ioos:station:WAVCIS:CSI03:1,2011-05-05T17:00:00Z,29.4412,-92.0613,1021.27,11111222 
WAVCIS,ioos:station:WAVCIS:CSI03:1,2011-05-05T18:00:00Z,29.4412,-92.0613,1020.6,11111222 
WAVCIS,ioos:station:WAVCIS:CSI03:1,2011-05-05T19:00:00Z,29.4412,-92.0613,1019.65,11111222 
WAVCIS,ioos:station:WAVCIS:CSI03:1,2011-05-05T20:00:00Z,29.4412,-92.0613,1018.82,11111222 
WAVCIS,ioos:station:WAVCIS:CSI03:1,2011-05-05T21:00:00Z,29.4412,-92.0613,1018.1,11111222 
WAVCIS,ioos:station:WAVCIS:CSI03:1,2011-05-05T22:00:00Z,29.4412,-92.0613,1017.55,11111222 
WAVCIS,ioos:station:WAVCIS:CSI03:1,2011-05-05T23:00:00Z,29.4412,-92.0613,1017.13,11111222 
WAVCIS,ioos:station:WAVCIS:CSI03:1,2011-05-06T00:00:00Z,29.4412,-92.0613,1016.83,11111222 
WAVCIS,ioos:station:WAVCIS:CSI03:1,2011-05-06T01:00:00Z,29.4412,-92.0613,1016.71,11111222 
WAVCIS,ioos:station:WAVCIS:CSI03:1,2011-05-06T02:00:00Z,29.4412,-92.0613,1017.06,11111222 
WAVCIS,ioos:station:WAVCIS:CSI03:1,2011-05-06T03:00:00Z,29.4412,-92.0613,1017.45,11111222 
WAVCIS,ioos:station:WAVCIS:CSI03:1,2011-05-06T04:00:00Z,29.4412,-92.0613,1017.62,11111222 
WAVCIS,ioos:station:WAVCIS:CSI03:1,2011-05-06T05:00:00Z,29.4412,-92.0613,1017.64,11111222 
WAVCIS,ioos:station:WAVCIS:CSI03:1,2011-05-06T06:00:00Z,29.4412,-92.0613,1017.03,11111222 
WAVCIS,ioos:station:WAVCIS:CSI03:1,2011-05-06T07:00:00Z,29.4412,-92.0613,1016.67,11111222 
WAVCIS,ioos:station:WAVCIS:CSI03:1,2011-05-06T08:00:00Z,29.4412,-92.0613,1016.42,11111222 
WAVCIS,ioos:station:WAVCIS:CSI03:1,2011-05-06T09:00:00Z,29.4412,-92.0613,1015.97,11111222 
WAVCIS,ioos:station:WAVCIS:CSI03:1,2011-05-06T10:00:00Z,29.4412,-92.0613,1016.08,11111222 
WAVCIS,ioos:station:WAVCIS:CSI03:1,2011-05-06T11:00:00Z,29.4412,-92.0613,1016.32,11111222 
WAVCIS,ioos:station:WAVCIS:CSI03:1,2011-05-06T12:00:00Z,29.4412,-92.0613,1016.91,11111222 
WAVCIS,ioos:station:WAVCIS:CSI03:1,2011-05-06T13:00:00Z,29.4412,-92.0613,1017.18,11111222 
WAVCIS,ioos:station:WAVCIS:CSI03:1,2011-05-06T14:00:00Z,29.4412,-92.0613,1017.44,11111222 
WAVCIS,ioos:station:WAVCIS:CSI03:1,2011-05-06T15:00:00Z,29.4412,-92.0613,1017.85,11111222 
WAVCIS,ioos:station:WAVCIS:CSI03:1,2011-05-06T16:00:00Z,29.4412,-92.0613,1017.78,11111222 
WAVCIS,ioos:station:WAVCIS:CSI03:1,2011-05-06T17:00:00Z,29.4412,-92.0613,1017.65,11111222 
WAVCIS,ioos:station:WAVCIS:CSI03:1,2011-05-06T18:00:00Z,29.4412,-92.0613,1016.66,11111222 
WAVCIS,ioos:station:WAVCIS:CSI03:1,2011-05-06T19:00:00Z,29.4412,-92.0613,1016.37,11111222 
WAVCIS,ioos:station:WAVCIS:CSI03:1,2011-05-06T20:00:00Z,29.4412,-92.0613,1015.47,11111222 
WAVCIS,ioos:station:WAVCIS:CSI03:1,2011-05-06T21:00:00Z,29.4412,-92.0613,1014.6,11111222 
WAVCIS,ioos:station:WAVCIS:CSI03:1,2011-05-06T22:00:00Z,29.4412,-92.0613,1014.33,11111222 
WAVCIS,ioos:station:WAVCIS:CSI03:1,2011-05-06T23:00:00Z,29.4412,-92.0613,1013.78,11111222 
WAVCIS,ioos:station:WAVCIS:CSI03:1,2011-05-07T00:00:00Z,29.4412,-92.0613,1013.38,11111222 
WAVCIS,ioos:station:WAVCIS:CSI03:1,2011-05-07T01:00:00Z,29.4412,-92.0613,1013.5,11111222 
WAVCIS,ioos:station:WAVCIS:CSI03:1,2011-05-07T02:00:00Z,29.4412,-92.0613,1013.77,11111222 
WAVCIS,ioos:station:WAVCIS:CSI03:1,2011-05-07T03:00:00Z,29.4412,-92.0613,1014.05,11111222 
WAVCIS,ioos:station:WAVCIS:CSI03:1,2011-05-07T04:00:00Z,29.4412,-92.0613,1014.15,11111222 
WAVCIS,ioos:station:WAVCIS:CSI03:1,2011-05-07T05:00:00Z,29.4412,-92.0613,1013.73,11111222 
WAVCIS,ioos:station:WAVCIS:CSI03:1,2011-05-07T06:00:00Z,29.4412,-92.0613,1013.68,11111222 
WAVCIS,ioos:station:WAVCIS:CSI03:1,2011-05-07T07:00:00Z,29.4412,-92.0613,1013.24,11111222 
WAVCIS,ioos:station:WAVCIS:CSI03:1,2011-05-07T08:00:00Z,29.4412,-92.0613,1012.74,11111222 
WAVCIS,ioos:station:WAVCIS:CSI03:1,2011-05-07T09:00:00Z,29.4412,-92.0613,1012.11,11111222 
WAVCIS,ioos:station:WAVCIS:CSI03:1,2011-05-07T10:00:00Z,29.4412,-92.0613,1012.31,11111222 
WAVCIS,ioos:station:WAVCIS:CSI03:1,2011-05-07T11:00:00Z,29.4412,-92.0613,1012.78,11111222 
WAVCIS,ioos:station:WAVCIS:CSI03:1,2011-05-07T12:00:00Z,29.4412,-92.0613,1013.41,11111222 
WAVCIS,ioos:station:WAVCIS:CSI03:1,2011-05-07T13:00:00Z,29.4412,-92.0613,1013.75,11111222 
WAVCIS,ioos:station:WAVCIS:CSI03:1,2011-05-07T14:00:00Z,29.4412,-92.0613,1013.95,11111222 
WAVCIS,ioos:station:WAVCIS:CSI03:1,2011-05-07T15:00:00Z,29.4412,-92.0613,1014.26,11111222 
WAVCIS,ioos:station:WAVCIS:CSI03:1,2011-05-07T16:00:00Z,29.4412,-92.0613,1014.27,11111222 
WAVCIS,ioos:station:WAVCIS:CSI03:1,2011-05-07T17:00:00Z,29.4412,-92.0613,1014.02,11111222 
WAVCIS,ioos:station:WAVCIS:CSI03:1,2011-05-07T18:00:00Z,29.4412,-92.0613,1013.57,11111222 
WAVCIS,ioos:station:WAVCIS:CSI03:1,2011-05-07T19:00:00Z,29.4412,-92.0613,1013.05,11111222 
WAVCIS,ioos:station:WAVCIS:CSI03:1,2011-05-07T20:00:00Z,29.4412,-92.0613,1012.98,11111222 
WAVCIS,ioos:station:WAVCIS:CSI03:1,2011-05-07T21:00:00Z,29.4412,-92.0613,1012.35,11111222 
WAVCIS,ioos:station:WAVCIS:CSI03:1,2011-05-07T22:00:00Z,29.4412,-92.0613,1011.93,11111222 
WAVCIS,ioos:station:WAVCIS:CSI03:1,2011-05-07T23:00:00Z,29.4412,-92.0613,1011.6,11111222 
WAVCIS,ioos:station:WAVCIS:CSI03:1,2011-05-08T00:00:00Z,29.4412,-92.0613,1011.74,11111222 
WAVCIS,ioos:station:WAVCIS:CSI03:1,2011-05-08T01:00:00Z,29.4412,-92.0613,1011.71,11111222 
WAVCIS,ioos:station:WAVCIS:CSI03:1,2011-05-08T02:00:00Z,29.4412,-92.0613,1012.0,11111222 
WAVCIS,ioos:station:WAVCIS:CSI03:1,2011-05-08T03:00:00Z,29.4412,-92.0613,1011.95,11111222 
WAVCIS,ioos:station:WAVCIS:CSI03:1,2011-05-08T04:00:00Z,29.4412,-92.0613,1011.76,11111222 
WAVCIS,ioos:station:WAVCIS:CSI03:1,2011-05-08T05:00:00Z,29.4412,-92.0613,1011.71,11111222 
WAVCIS,ioos:station:WAVCIS:CSI03:1,2011-05-08T06:00:00Z,29.4412,-92.0613,1011.51,11111222 
WAVCIS,ioos:station:WAVCIS:CSI03:1,2011-05-08T07:00:00Z,29.4412,-92.0613,1011.54,11111222 
WAVCIS,ioos:station:WAVCIS:CSI03:1,2011-05-08T08:00:00Z,29.4412,-92.0613,1011.12,11111222 
WAVCIS,ioos:station:WAVCIS:CSI03:1,2011-05-08T09:00:00Z,29.4412,-92.0613,1011.0,11111222 
WAVCIS,ioos:station:WAVCIS:CSI03:1,2011-05-08T10:00:00Z,29.4412,-92.0613,1011.22,11111222 
WAVCIS,ioos:station:WAVCIS:CSI03:1,2011-05-08T11:00:00Z,29.4412,-92.0613,1011.33,11111222 
WAVCIS,ioos:station:WAVCIS:CSI03:1,2011-05-08T12:00:00Z,29.4412,-92.0613,1011.63,11111222 
WAVCIS,ioos:station:WAVCIS:CSI03:1,2011-05-08T13:00:00Z,29.4412,-92.0613,1012.32,11111222 
WAVCIS,ioos:station:WAVCIS:CSI03:1,2011-05-08T14:00:00Z,29.4412,-92.0613,1012.54,11111222 
WAVCIS,ioos:station:WAVCIS:CSI03:1,2011-05-08T15:00:00Z,29.4412,-92.0613,1012.82,11111222 
WAVCIS,ioos:station:WAVCIS:CSI03:1,2011-05-08T16:00:00Z,29.4412,-92.0613,1013.01,11111222 
WAVCIS,ioos:station:WAVCIS:CSI03:1,2011-05-08T17:00:00Z,29.4412,-92.0613,1012.67,11111222 
WAVCIS,ioos:station:WAVCIS:CSI03:1,2011-05-08T18:00:00Z,29.4412,-92.0613,1012.25,11111222 
WAVCIS,ioos:station:WAVCIS:CSI03:1,2011-05-08T19:00:00Z,29.4412,-92.0613,1012.25,11111222 
WAVCIS,ioos:station:WAVCIS:CSI03:1,2011-05-08T20:00:00Z,29.4412,-92.0613,1011.9,11111222 
WAVCIS,ioos:station:WAVCIS:CSI03:1,2011-05-08T21:00:00Z,29.4412,-92.0613,1011.26,11111222 
WAVCIS,ioos:station:WAVCIS:CSI03:1,2011-05-08T22:00:00Z,29.4412,-92.0613,1010.9,11111222 
WAVCIS,ioos:station:WAVCIS:CSI03:1,2011-05-08T23:00:00Z,29.4412,-92.0613,1010.73,11111222 
WAVCIS,ioos:station:WAVCIS:CSI03:1,2011-05-09T00:00:00Z,29.4412,-92.0613,1010.56,11111222 
WAVCIS,ioos:station:WAVCIS:CSI03:1,2011-05-09T01:00:00Z,29.4412,-92.0613,1010.29,11111222 
WAVCIS,ioos:station:WAVCIS:CSI03:1,2011-05-09T02:00:00Z,29.4412,-92.0613,1010.25,11111222 
WAVCIS,ioos:station:WAVCIS:CSI03:1,2011-05-09T03:00:00Z,29.4412,-92.0613,1010.59,11111222 
WAVCIS,ioos:station:WAVCIS:CSI03:1,2011-05-09T04:00:00Z,29.4412,-92.0613,1010.64,11111222 
WAVCIS,ioos:station:WAVCIS:CSI03:1,2011-05-09T05:00:00Z,29.4412,-92.0613,1010.73,11111222 
WAVCIS,ioos:station:WAVCIS:CSI03:1,2011-05-09T06:00:00Z,29.4412,-92.0613,1010.68,11111222 
WAVCIS,ioos:station:WAVCIS:CSI03:1,2011-05-09T07:00:00Z,29.4412,-92.0613,1010.27,11111222 
WAVCIS,ioos:station:WAVCIS:CSI03:1,2011-05-09T08:00:00Z,29.4412,-92.0613,1010.18,11111222 
WAVCIS,ioos:station:WAVCIS:CSI03:1,2011-05-09T09:00:00Z,29.4412,-92.0613,1010.07,11111222 
WAVCIS,ioos:station:WAVCIS:CSI03:1,2011-05-09T10:00:00Z,29.4412,-92.0613,1009.99,11111222 
WAVCIS,ioos:station:WAVCIS:CSI03:1,2011-05-09T11:00:00Z,29.4412,-92.0613,1010.39,11111222 
WAVCIS,ioos:station:WAVCIS:CSI03:1,2011-05-09T12:00:00Z,29.4412,-92.0613,1011.32,11111222 
WAVCIS,ioos:station:WAVCIS:CSI03:1,2011-05-09T13:00:00Z,29.4412,-92.0613,1011.95,11111222 
WAVCIS,ioos:station:WAVCIS:CSI03:1,2011-05-09T14:00:00Z,29.4412,-92.0613,1011.94,11111222 
WAVCIS,ioos:station:WAVCIS:CSI03:1,2011-05-09T15:00:00Z,29.4412,-92.0613,1012.07,11111222 
WAVCIS,ioos:station:WAVCIS:CSI03:1,2011-05-09T16:00:00Z,29.4412,-92.0613,1011.99,11111222 
WAVCIS,ioos:station:WAVCIS:CSI03:1,2011-05-09T17:00:00Z,29.4412,-92.0613,1011.99,11111222 
WAVCIS,ioos:station:WAVCIS:CSI03:1,2011-05-09T18:00:00Z,29.4412,-92.0613,1011.47,11111222 
WAVCIS,ioos:station:WAVCIS:CSI03:1,2011-05-09T19:00:00Z,29.4412,-92.0613,1011.45,11111222 
WAVCIS,ioos:station:WAVCIS:CSI03:1,2011-05-09T20:00:00Z,29.4412,-92.0613,1011.26,11111222 
WAVCIS,ioos:station:WAVCIS:CSI03:1,2011-05-09T21:00:00Z,29.4412,-92.0613,1010.21,11111222 
WAVCIS,ioos:station:WAVCIS:CSI03:1,2011-05-09T22:00:00Z,29.4412,-92.0613,1009.57,11111222 
WAVCIS,ioos:station:WAVCIS:CSI03:1,2011-05-09T23:00:00Z,29.4412,-92.0613,1009.02,11111222 
WAVCIS,ioos:station:WAVCIS:CSI03:1,2011-05-10T00:00:00Z,29.4412,-92.0613,1008.48,11111222 
WAVCIS,ioos:station:WAVCIS:CSI03:1,2011-05-10T01:00:00Z,29.4412,-92.0613,1008.75,11111222 
WAVCIS,ioos:station:WAVCIS:CSI03:1,2011-05-10T02:00:00Z,29.4412,-92.0613,1008.95,11111222 
WAVCIS,ioos:station:WAVCIS:CSI03:1,2011-05-10T03:00:00Z,29.4412,-92.0613,1009.05,11111222 
WAVCIS,ioos:station:WAVCIS:CSI03:1,2011-05-10T04:00:00Z,29.4412,-92.0613,1009.37,11111222 
WAVCIS,ioos:station:WAVCIS:CSI03:1,2011-05-10T05:00:00Z,29.4412,-92.0613,1009.59,11111222 
WAVCIS,ioos:station:WAVCIS:CSI03:1,2011-05-10T06:00:00Z,29.4412,-92.0613,1009.56,11111222 
WAVCIS,ioos:station:WAVCIS:CSI03:1,2011-05-10T07:00:00Z,29.4412,-92.0613,1009.03,11111222 
WAVCIS,ioos:station:WAVCIS:CSI03:1,2011-05-10T08:00:00Z,29.4412,-92.0613,1008.87,11111222 
WAVCIS,ioos:station:WAVCIS:CSI03:1,2011-05-10T09:00:00Z,29.4412,-92.0613,1008.97,11111222 
WAVCIS,ioos:station:WAVCIS:CSI03:1,2011-05-10T10:00:00Z,29.4412,-92.0613,1009.17,11111222 
WAVCIS,ioos:station:WAVCIS:CSI03:1,2011-05-10T11:00:00Z,29.4412,-92.0613,1009.36,11111222 
WAVCIS,ioos:station:WAVCIS:CSI03:1,2011-05-10T12:00:00Z,29.4412,-92.0613,1009.79,11111222 
WAVCIS,ioos:station:WAVCIS:CSI03:1,2011-05-10T13:00:00Z,29.4412,-92.0613,1010.46,11111222 
WAVCIS,ioos:station:WAVCIS:CSI03:1,2011-05-10T14:00:00Z,29.4412,-92.0613,1010.83,11111222 
WAVCIS,ioos:station:WAVCIS:CSI03:1,2011-05-10T15:00:00Z,29.4412,-92.0613,1011.39,11111222 
WAVCIS,ioos:station:WAVCIS:CSI03:1,2011-05-10T16:00:00Z,29.4412,-92.0613,1011.64,11111222 
WAVCIS,ioos:station:WAVCIS:CSI03:1,2011-05-10T17:00:00Z,29.4412,-92.0613,1012.18,11111222 
WAVCIS,ioos:station:WAVCIS:CSI03:1,2011-05-10T18:00:00Z,29.4412,-92.0613,1011.54,11111222 
WAVCIS,ioos:station:WAVCIS:CSI03:1,2011-05-10T19:00:00Z,29.4412,-92.0613,1010.7,11111222 
WAVCIS,ioos:station:WAVCIS:CSI03:1,2011-05-10T20:00:00Z,29.4412,-92.0613,1010.46,11111222 
WAVCIS,ioos:station:WAVCIS:CSI03:1,2011-05-10T21:00:00Z,29.4412,-92.0613,1010.06,11111222 
WAVCIS,ioos:station:WAVCIS:CSI03:1,2011-05-10T22:00:00Z,29.4412,-92.0613,1009.8,11111222 
WAVCIS,ioos:station:WAVCIS:CSI03:1,2011-05-10T23:00:00Z,29.4412,-92.0613,1009.28,11111222 
WAVCIS,ioos:station:WAVCIS:CSI03:1,2011-05-11T00:00:00Z,29.4412,-92.0613,1009.2,11111222 
WAVCIS,ioos:station:WAVCIS:CSI03:1,2011-05-11T01:00:00Z,29.4412,-92.0613,1009.4,11111222 
WAVCIS,ioos:station:WAVCIS:CSI03:1,2011-05-11T02:00:00Z,29.4412,-92.0613,1009.53,11111222 
WAVCIS,ioos:station:WAVCIS:CSI03:1,2011-05-11T03:00:00Z,29.4412,-92.0613,1009.55,11111222 
WAVCIS,ioos:station:WAVCIS:CSI03:1,2011-05-11T04:00:00Z,29.4412,-92.0613,1009.81,11111222 
WAVCIS,ioos:station:WAVCIS:CSI03:1,2011-05-11T05:00:00Z,29.4412,-92.0613,1009.75,11111222 
WAVCIS,ioos:station:WAVCIS:CSI03:1,2011-05-11T06:00:00Z,29.4412,-92.0613,1009.64,11111222 
WAVCIS,ioos:station:WAVCIS:CSI03:1,2011-05-11T07:00:00Z,29.4412,-92.0613,1009.38,11111222 
WAVCIS,ioos:station:WAVCIS:CSI03:1,2011-05-11T08:00:00Z,29.4412,-92.0613,1009.41,11111222 
WAVCIS,ioos:station:WAVCIS:CSI03:1,2011-05-11T09:00:00Z,29.4412,-92.0613,1008.88,11111222 
WAVCIS,ioos:station:WAVCIS:CSI03:1,2011-05-11T10:00:00Z,29.4412,-92.0613,1008.99,11111222 
WAVCIS,ioos:station:WAVCIS:CSI03:1,2011-05-11T11:00:00Z,29.4412,-92.0613,1009.03,11111222 
WAVCIS,ioos:station:WAVCIS:CSI03:1,2011-05-11T12:00:00Z,29.4412,-92.0613,1009.71,11111222 
WAVCIS,ioos:station:WAVCIS:CSI03:1,2011-05-11T13:00:00Z,29.4412,-92.0613,1010.42,11111222 
WAVCIS,ioos:station:WAVCIS:CSI03:1,2011-05-11T14:00:00Z,29.4412,-92.0613,1011.07,11111222 
WAVCIS,ioos:station:WAVCIS:CSI03:1,2011-05-11T15:00:00Z,29.4412,-92.0613,1011.5,11111222 
WAVCIS,ioos:station:WAVCIS:CSI03:1,2011-05-11T16:00:00Z,29.4412,-92.0613,1011.62,11111222 
WAVCIS,ioos:station:WAVCIS:CSI03:1,2011-05-11T17:00:00Z,29.4412,-92.0613,1012.22,11111222 
WAVCIS,ioos:station:WAVCIS:CSI03:1,2011-05-11T18:00:00Z,29.4412,-92.0613,1012.16,11111222 
WAVCIS,ioos:station:WAVCIS:CSI03:1,2011-05-11T19:00:00Z,29.4412,-92.0613,1011.6,11111222 
WAVCIS,ioos:station:WAVCIS:CSI03:1,2011-05-11T20:00:00Z,29.4412,-92.0613,1010.94,11111222 
WAVCIS,ioos:station:WAVCIS:CSI03:1,2011-05-11T21:00:00Z,29.4412,-92.0613,1009.82,11111222 
WAVCIS,ioos:station:WAVCIS:CSI03:1,2011-05-11T22:00:00Z,29.4412,-92.0613,1009.25,11111222 